02:02
Airports
History
Links
Donate
Help keep this website running!
PayPal
Bitcoin
This page is community maintained. The information is intended for PC simulator navigation or reference.
Always use approved charts for navigation.
TN32
Cambron Field
Cambron Field (TN32)
Nashville, Tennessee, United States (37221)
4
Lat/Lng:36° 2' 0.22" N / 86° 58' 0.01" W
36.033394 / -86.966669
Elevation:600'ft / 183mMSL
ID / ICAO:TN32
Runways:1
Longest:09-27
Grass 515m / 1,690ft
Nearby Weather01:53 GMT 2018-02-24
Nearby weather at KBNA, Nashville Intl located 17.3 nautical miles from TN32
Altimeter: 30.18
Visibility: 10.0 statute miles
Wind: 4 knots (from 160°)
Temp: 21°c / 70°f
Humidity: 60.2%

METAR: KBNA 240153Z 16004KT 10SM OVC150 21/13 A3018 RMK AO2 SLP215 T02110128

(Powered by phpweather)
Nearby VORs <50NM
Nearby NDBs
Runway 09 / 27
Dimensions:515 x 30.5m 1690' x 100'ft
Surface:Grass
Runway 09 [A]Runway 27 [B]
Heading:090°TH 270°TH
Lat:
Lng:
36° 2' 0.22"N
86° 58' 10.39"W
36° 2' 0.22"N
86° 57' 49.63"W
User Notes and Comments
36° 2' 0.22" N / 86° 58' 0.01" W
Distance To
Airport ID:
Nearby Airports
(R) Oakley 9.6 NM
TN79 N
(U) John C Tune 11.2 NM
KJWN NNE 23°
(R) Dripping Springs Farm 15.8 NM
6TN9 W 277°
(C) Nashville Intl 17.3 NM
KBNA ( WX ) ENE 68°
(U) CORNELIA FORT AIRPARK 18.3 NM
M88 NE 53°
(R) Doc Jones Field 20.0 NM
TN73 N
4 Shultz 21.4 NM
TN81 SSE 156°
VFR Chart
Flight Planning at SkyVector.com